CW1259 Weather Reports


Display with metric or nautical units.
time (UTC)temp
F
wind
direction
speed
MPH
gust
MPH
rain 1hr
in
rain 24hr
in
rain mn
in
humidity
%
barometer
mb
20260505184321 75 205 9.0 20.0 0.00 0.00 0.00 48 1005.0
20260505183317 75 194 8.0 17.0 0.00 0.00 0.00 48 1005.2
20260505183038 75 246 8.0 17.0 0.00 0.00 0.00 49 1004.8
20260505182313 74 184 11.0 19.0 0.00 0.00 0.00 49 1005.0
20260505181503 74 143 11.0 19.0 0.00 0.00 0.00 49 1005.0
20260505181315 75 188 13.0 21.0 0.00 0.00 0.00 49 1005.3
20260505180335 77 109 10.0 17.0 0.00 0.00 0.00 47 1005.3
20260505180020 77 166 8.0 17.0 0.00 0.00 0.00 46 1005.1
20260505175328 78 263 10.0 21.0 0.00 0.00 0.00 44 1005.5
20260505174553 76 288 8.0 21.0 0.00 0.00 0.00 45 1005.1
20260505174316 77 232 8.0 25.0 0.00 0.00 0.00 46 1005.5
20260505173314 76 234 8.0 20.0 0.00 0.00 0.00 46 1005.6
20260505173059 76 251 8.0 20.0 0.00 0.00 0.00 45 1005.4
20260505172352 76 242 10.0 20.0 0.00 0.00 0.00 47 1005.8
20260505171506 75 210 10.0 21.0 0.00 0.00 0.00 45 1005.6
20260505171344 76 177 10.0 21.0 0.00 0.00 0.00 45 1005.8
20260505170319 75 266 7.0 20.0 0.00 0.00 0.00 48 1006.1
20260505170056 75 284 12.0 20.0 0.00 0.00 0.00 45 1005.8
20260505165353 75 279 6.0 23.0 0.00 0.00 0.00 49 1006.3
20260505164617 74 272 9.0 18.0 0.00 0.00 0.00 48 1006.3
20260505164321 74 263 5.0 21.0 0.00 0.00 0.00 48 1006.7
20260505163314 74 237 13.0 25.0 0.00 0.00 0.00 47 1007.0
20260505163010 73 239 6.0 15.0 0.00 0.00 0.00 50 1006.8
20260505162329 73 213 5.0 18.0 0.00 0.00 0.00 49 1007.0
20260505161535 72 226 8.0 19.0 0.00 0.00 0.00 48 1007.0
20260505161329 73 249 10.0 18.0 0.00 0.00 0.00 49 1007.2
20260505160339 72 224 10.0 18.0 0.00 0.00 0.00 49 1007.1
20260505153323 70 265 9.0 22.0 0.00 0.00 0.00 51 1007.7
20260505153002 70 293 11.0 20.0 0.00 0.00 0.00 51 1007.7
20260505152312 69 279 8.0 18.0 0.00 0.00 0.00 53 1007.9
20260505151523 68 261 7.0 16.0 0.00 0.00 0.00 54 1007.7
20260505151328 68 197 7.0 11.0 0.00 0.00 0.00 54 1007.9
20260505150319 67 230 9.0 14.0 0.00 0.00 0.00 55 1008.2
20260505140333 65 213 8.0 12.0 0.00 0.00 0.00 55 1007.7
20260505124601 58 196 3.0 12.0 0.00 0.00 0.00 63 1008.1
20260505124327 59 179 6.0 12.0 0.00 0.00 0.00 62 1008.1
20260505123344 58 176 5.0 10.0 0.00 0.00 0.00 63 1007.9
20260505123047 57 153 6.0 10.0 0.00 0.00 0.00 64 1008.0
20260505122314 58 169 7.0 9.0 0.00 0.00 0.00 64 1008.1
20260505121512 57 238 4.0 12.0 0.00 0.00 0.00 65 1008.2
20260505121313 57 179 4.0 12.0 0.00 0.00 0.00 66 1008.3
20260505120327 57 189 7.0 9.0 0.00 0.00 0.00 64 1008.4
20260505120028 56 202 4.0 8.0 0.00 0.00 0.00 65 1008.3
20260505115324 56 257 3.0 9.0 0.00 0.00 0.00 67 1008.4
20260505114556 55 227 4.0 9.0 0.00 0.00 0.00 67 1008.4
20260505114319 55 186 4.0 9.0 0.00 0.00 0.00 66 1008.4
20260505113337 55 224 4.0 8.0 0.00 0.00 0.00 68 1008.3
20260505113012 54 200 5.0 8.0 0.00 0.00 0.00 68 1008.3
20260505112352 53 234 5.0 11.0 0.00 0.00 0.00 70 1008.5